Weather History for Cincinnati, OH

Change the Weather History Date:

Friday, August 16, 2013

  Actual Average Record
Temperature  
Mean Temperature 66 °F -  
Max Temperature 79 °F 85 °F 100 °F (2007)
Min Temperature 53 °F 65 °F 48 °F (1979)
Growing Degree Days 16 (Base 50)    
Moisture  
Dew Point 55 °F    
Average Humidity 76    
Maximum Humidity 100    
Minimum Humidity 43    
Precipitation  
Precipitation 0.00 in - - ()
Sea Level Pressure  
Sea Level Pressure 30.14 in    
Wind  
Wind Speed 2 mph (NE)    
Max Wind Speed 9 mph    
Max Gust Speed 16 mph    
Visibility 8 miles    
Events Fog    
Averages and records for this station are not official NWS values.
T = Trace of Precipitation, MM = Missing Value Source: NWS Daily Summary

Daily Weather History Graph

Daily Weather History Graph

Search for Another Location

Airport:

Trip Planner

Search our weather history database for the weather conditions in past years. The results will help you decide how hot, cold, wet, or windy it might be!

Date:

Astronomy

Aug. 16, 2013 Rise Set
Actual Time 6:52 AM EDT 8:31 PM EDT
Civil Twilight 6:23 AM EDT 8:59 PM EDT
Nautical Twilight 5:49 AM EDT 9:33 PM EDT
Astronomical Twilight 5:12 AM EDT 10:10 PM EDT
Moon 4:48 PM EDT (8/16) 1:54 AM EDT (8/16)
Length of Visible Light 14h 35m
Length of Day
13h 39m
Waxing Gibbous, 74% of the Moon is Illuminated
Aug 16
Waxing Gibbous
Aug 20
Full
Aug 28
Last Quarter
Sep 5
New
Sep 12
First Quarter

Hourly Weather History & Observations

Time (EDT) Temp. Dew Point Humidity Pressure Visibility Wind Dir Wind Speed Gust Speed Precip Events Conditions
1:53 AM 57.9 °F 57.0 °F 97% 30.12 in 8.0 mi Calm Calm - N/A   Clear
2:53 AM 57.0 °F 55.9 °F 96% 30.12 in 10.0 mi Calm Calm - N/A   Scattered Clouds
3:53 AM 57.0 °F 55.9 °F 96% 30.13 in 7.0 mi Calm Calm - N/A   Mostly Cloudy
4:53 AM 55.0 °F 54.0 °F 96% 30.13 in 5.0 mi Calm Calm - N/A   Scattered Clouds
5:53 AM 53.1 °F 53.1 °F 100% 30.12 in 2.5 mi Calm Calm - N/A   Clear
6:05 AM 53.6 °F 53.6 °F 100% 30.13 in 0.8 mi Calm Calm - N/A   Clear
6:17 AM 53.6 °F 53.6 °F 100% 30.13 in 0.2 mi Calm Calm - N/A Fog Fog
6:28 AM 53.6 °F 53.6 °F 100% 30.14 in 0.8 mi Calm Calm - N/A   Clear
6:33 AM 53.6 °F 53.6 °F 100% 30.14 in 3.0 mi Calm Calm - N/A   Clear
6:53 AM 53.1 °F 53.1 °F 100% 30.14 in 5.0 mi Calm Calm - N/A   Clear
7:53 AM 55.0 °F 55.0 °F 100% 30.15 in 9.0 mi Calm Calm - N/A   Clear
8:53 AM 61.0 °F 55.9 °F 83% 30.16 in 10.0 mi Calm Calm - N/A   Clear
9:53 AM 66.0 °F 55.9 °F 70% 30.16 in 10.0 mi Variable 3.5 mph - N/A   Clear
10:53 AM 72.0 °F 55.9 °F 57% 30.16 in 10.0 mi ENE 5.8 mph - N/A   Clear
11:53 AM 73.9 °F 55.0 °F 52% 30.15 in 10.0 mi ESE 9.2 mph - N/A   Clear
12:53 PM 75.0 °F 52.0 °F 44% 30.16 in 10.0 mi ENE 4.6 mph - N/A   Clear
1:53 PM 75.9 °F 55.0 °F 48% 30.14 in 10.0 mi NE 9.2 mph 16.1 mph N/A   Scattered Clouds
2:53 PM 75.9 °F 54.0 °F 46% 30.14 in 10.0 mi East 4.6 mph - N/A   Scattered Clouds
3:53 PM 77.0 °F 54.0 °F 45% 30.12 in 10.0 mi NE 6.9 mph - N/A   Scattered Clouds
4:53 PM 78.1 °F 54.0 °F 43% 30.12 in 10.0 mi NNE 5.8 mph - N/A   Clear
5:53 PM 75.9 °F 54.0 °F 46% 30.12 in 10.0 mi NNE 4.6 mph - N/A   Partly Cloudy
6:53 PM 75.0 °F 55.9 °F 51% 30.13 in 10.0 mi NE 5.8 mph - N/A   Partly Cloudy
7:53 PM 71.1 °F 57.9 °F 63% 30.13 in 10.0 mi ENE 3.5 mph - N/A   Clear
8:53 PM 64.9 °F 60.1 °F 84% 30.14 in 10.0 mi Calm Calm - N/A   Clear
9:53 PM 64.9 °F 57.0 °F 75% 30.15 in 10.0 mi NE 3.5 mph - N/A   Clear
10:53 PM 63.0 °F 57.0 °F 81% 30.16 in 10.0 mi Calm Calm - N/A   Clear
11:53 PM 61.0 °F 57.9 °F 90% 30.17 in 10.0 mi Calm Calm - N/A   Clear